Find Starlink 11168

NORAD ID: 60183 Int'l Des: 2024-124 Owner: SPXS Country: US Constellation: starlink operational
LEOCIRCULAR

現在のビュー

3D地球を読み込み中...

About Starlink 11168

Starlink 11168 (NORAD 60183) is a starlink constellation satellite (v2 mini d2c) launched Jul 3, 2024 by SPXS of US. It operates in LEO, CIRCULAR orbit with a mass of 960.00 kg.

Starlink 11168について

説明を読み込み中...

次回通過

Passes for default location (London). Set your location on the main map for personalized predictions.

高度履歴

Loading altitude history...

軌道要素

1 60183U 24124A 26170.99643644 .00000641 00000-0 10144-4 0 9997
2 60183 53.1588 16.8396 0000970 49.0458 311.0644 15.69713997113796
Epoch: Jun 19, 2026 • Age: 44 hours

現在のステータス

高度 378.2 km
速度 7.68 km/s
衛星直下点 -52.00°S, 86.96°E
打ち上げ日 Jul 3, 2024
運用期間 1.9 years
タイプ internet

技術仕様

分類 Payload
質量 960.00 kg
乾燥質量 910.00 kg
総質量 960.00 kg
長さ 0.30 m
直径 4.10 m
スパン 29.00 m
形状 Box + pan
製造者 SPXS
バスタイプ Starlink V2MD
フェーズステータス In Orbit
所有者/国 SPXS/US

Most Searched